H1 CPF 2 NER 2021 4 5 9 095 01 glonass116 H2 0907001 9116 36111 2021 4 5 0 0 0 2021 4 8 23 45 0 900 1 1 0 0 0 1 H9 10 0 59309 0.00000 0 -15516695.499 19556865.601 -5271726.604 10 0 59309 900.00000 0 -14983269.174 18897247.987 -8328702.778 10 0 59309 1800.00000 0 -14333674.934 17873858.496 -11223996.712 10 0 59309 2700.00000 0 -13625272.379 16490650.765 -13901379.987 10 0 59309 3600.00000 0 -12914941.914 14764537.562 -16308842.915 10 0 59309 4500.00000 0 -12256552.223 12724907.461 -18399605.299 10 0 59309 5400.00000 0 -11698570.014 10412629.194 -20133026.049 10 0 59309 6300.00000 0 -11281913.043 7878583.824 -21475394.033 10 0 59309 7200.00000 0 -11038137.130 5181784.920 -22400584.853 10 0 59309 8100.00000 0 -10988033.762 2387163.938 -22890570.907 10 0 59309 9000.00000 0 -11140697.683 -436888.081 -22935774.908 10 0 59309 9900.00000 0 -11493104.108 -3221121.044 -22535259.891 10 0 59309 10800.00000 0 -12030213.842 -5898061.335 -21696751.860 10 0 59309 11700.00000 0 -12725602.398 -8404573.490 -20436494.307 10 0 59309 12600.00000 0 -13542587.150 -10684242.015 -18778936.986 10 0 59309 13500.00000 0 -14435805.541 -12689474.803 -16756264.492 10 0 59309 14400.00000 0 -15353178.223 -14383241.034 -14407773.234 10 0 59309 15300.00000 0 -16238174.524 -15740371.500 -11779108.574 10 0 59309 16200.00000 0 -17032284.670 -16748367.638 -8921376.618 10 0 59309 17100.00000 0 -17677594.146 -17407686.115 -5890147.857 10 0 59309 18000.00000 0 -18119350.968 -17731487.810 -2744372.306 10 0 59309 18900.00000 0 -18308416.773 -17744862.800 454772.367 10 0 59309 19800.00000 0 -18203497.359 -17483565.097 3645076.707 10 0 59309 20700.00000 0 -17773057.617 -16992311.649 6764515.193 10 0 59309 21600.00000 0 -16996839.214 -16322718.685 9752457.435 10 0 59309 22500.00000 0 -15866916.229 -15530963.630 12550850.565 10 0 59309 23400.00000 0 -14388243.676 -14675272.396 15105349.221 10 0 59309 24300.00000 0 -12578675.308 -13813338.915 17366370.888 10 0 59309 25200.00000 0 -10468449.503 -12999786.309 19290056.132 10 0 59309 26100.00000 0 -8099164.450 -12283776.971 20839115.305 10 0 59309 27000.00000 0 -5522285.102 -11706872.140 21983545.898 10 0 59309 27900.00000 0 -2797243.722 -11301230.673 22701207.391 10 0 59309 28800.00000 0 10787.315 -11088222.236 22978243.257 10 0 59309 29700.00000 0 2833358.550 -11077512.494 22809342.811 10 0 59309 30600.00000 0 5601340.897 -11266658.074 22197838.532 10 0 59309 31500.00000 0 8247550.583 -11641227.707 21155637.498 10 0 59309 32400.00000 0 10709293.862 -12175444.058 19702988.520 10 0 59309 33300.00000 0 12930727.104 -12833319.060 17868089.491 10 0 59309 34200.00000 0 14864935.400 -13570235.032 15686542.316 10 0 59309 35100.00000 0 16475644.526 -14334905.282 13200665.580 10 0 59309 36000.00000 0 17738496.185 -15071631.978 10458677.674 10 0 59309 36900.00000 0 18641834.304 -15722766.531 7513765.735 10 0 59309 37800.00000 0 19186970.536 -16231269.096 4423057.888 10 0 59309 38700.00000 0 19387918.669 -16543259.427 1246518.307 10 0 59309 39600.00000 0 19270609.705 -16610451.423 -1954213.657 10 0 59309 40500.00000 0 18871621.172 -16392368.409 -5117017.879 10 0 59309 41400.00000 0 18236474.530 -15858245.150 -8180498.215 10 0 59309 42300.00000 0 17417572.697 -14988535.659 -11085173.990 10 0 59309 43200.00000 0 16471864.810 -13775962.268 -13774634.979 10 0 59309 44100.00000 0 15458336.828 -12226060.615 -16196637.298 10 0 59309 45000.00000 0 14435433.818 -10357196.356 -18304118.750 10 0 59309 45900.00000 0 13458522.613 -8200051.471 -20056113.930 10 0 59309 46800.00000 0 12577501.684 -5796600.199 -21418551.369 10 0 59309 47700.00000 0 11834658.887 -3198616.042 -22364917.269 10 0 59309 48600.00000 0 11262867.201 -465770.734 -22876773.111 10 0 59309 49500.00000 0 10884194.361 2336596.900 -22944117.090 10 0 59309 50400.00000 0 10708984.930 5139950.370 -22565582.318 10 0 59309 51300.00000 0 10735453.501 7875161.547 -21748467.791 10 0 59309 52200.00000 0 10949806.279 10475145.750 -20508601.174 10 0 59309 53100.00000 0 11326886.099 12877416.874 -18870035.656 10 0 59309 54000.00000 0 11831313.866 15026456.800 -16864586.252 10 0 59309 54900.00000 0 12419078.413 16875800.811 -14531214.019 10 0 59309 55800.00000 0 13039507.708 18389752.314 -11915269.766 10 0 59309 56700.00000 0 13637538.038 19544655.699 -9067611.645 10 0 59309 57600.00000 0 14156184.960 20329674.502 -6043613.717 10 0 59309 58500.00000 0 14539111.026 20747042.805 -2902084.971 10 0 59309 59400.00000 0 14733181.008 20811780.107 295879.729 10 0 59309 60300.00000 0 14690895.686 20550882.559 3488093.854 10 0 59309 61200.00000 0 14372600.389 20002025.627 6612494.491 10 0 59309 62100.00000 0 13748374.024 19211834.016 9608354.292 10 0 59309 63000.00000 0 12799517.924 18233792.893 12417465.835 10 0 59309 63900.00000 0 11519580.951 17125889.549 14985274.698 10 0 59309 64800.00000 0 9914876.991 15948085.752 17261939.006 10 0 59309 65700.00000 0 8004472.452 14759727.929 19203294.810 10 0 59309 66600.00000 0 5819643.830 13617004.494 20771708.818 10 0 59309 67500.00000 0 3402827.488 12570557.225 21936802.482 10 0 59309 68400.00000 0 806104.973 11663346.740 22676034.174 10 0 59309 69300.00000 0 -1910713.514 10928861.031 22975128.954 10 0 59309 70200.00000 0 -4682328.478 10389741.425 22828348.474 10 0 59309 71100.00000 0 -7440421.103 10056882.615 22238596.506 10 0 59309 72000.00000 0 -10116252.131 9929043.599 21217358.585 10 0 59309 72900.00000 0 -12643282.872 9992984.981 19784477.220 10 0 59309 73800.00000 0 -14959710.679 10224126.178 17967767.042 10 0 59309 74700.00000 0 -17010814.622 10587694.474 15802477.117 10 0 59309 75600.00000 0 -18751015.016 11040317.362 13330610.452 10 0 59309 76500.00000 0 -20145562.095 11531991.102 10600113.264 10 0 59309 77400.00000 0 -21171784.295 12008342.631 7663949.252 10 0 59309 78300.00000 0 -21819844.862 12413089.583 4579076.242 10 0 59309 79200.00000 0 -22092975.781 12690594.675 1405344.617 10 0 59309 80100.00000 0 -22007179.745 12788406.557 -1795661.298 10 0 59309 81000.00000 0 -21590413.092 12659679.623 -4961816.533 10 0 59309 81900.00000 0 -20881284.374 12265370.108 -8031660.318 10 0 59309 82800.00000 0 -19927323.474 11576115.105 -10945588.825 10 0 59309 83700.00000 0 -18782894.310 10573714.315 -13647012.551 10 0 59309 84600.00000 0 -17506839.014 9252150.933 -16083455.698 10 0 59309 85500.00000 0 -16159952.787 7618107.453 -18207576.027 10 0 59310 0.00000 0 -14802395.604 5690953.299 -19978085.364 10 0 59310 900.00000 0 -13491149.655 3502202.817 -21360553.113 10 0 59310 1800.00000 0 -12277628.675 1094465.977 -22328076.780 10 0 59310 2700.00000 0 -11205540.619 -1480067.687 -22861807.176 10 0 59310 3600.00000 0 -10309091.715 -4161548.546 -22951317.798 10 0 59310 4500.00000 0 -9611608.264 -6884711.921 -22594811.224 10 0 59310 5400.00000 0 -9124633.303 -9581356.072 -21799158.405 10 0 59310 6300.00000 0 -8847536.017 -12182951.095 -20579769.763 10 0 59310 7200.00000 0 -8767650.143 -14623270.779 -18960300.145 10 0 59310 8100.00000 0 -8860935.348 -16840938.439 -16972192.910 10 0 59310 9000.00000 0 -9093133.515 -18781781.044 -14654071.431 10 0 59310 9900.00000 0 -9421370.921 -20400893.598 -12050989.461 10 0 59310 10800.00000 0 -9796138.319 -21664327.793 -9213554.608 10 0 59310 11700.00000 0 -10163564.763 -22550334.504 -6196941.854 10 0 59310 12600.00000 0 -10467888.395 -23050108.283 -3059816.545 10 0 59310 13500.00000 0 -10654018.847 -23168003.130 136811.842 10 0 59310 14400.00000 0 -10670081.932 -22921211.023 3330782.236 10 0 59310 15300.00000 0 -10469837.948 -22338917.544 6459996.804 10 0 59310 16200.00000 0 -10014870.295 -21460971.039 9463633.643 10 0 59310 17100.00000 0 -9276450.911 -20336122.361 12283333.084 10 0 59310 18000.00000 0 -8237002.903 -19019910.291 14864333.853 10 0 59310 18900.00000 0 -6891097.918 -17572282.555 17156536.728 10 0 59310 19800.00000 0 -5245945.520 -16055053.125 19115475.051 10 0 59310 20700.00000 0 -3321353.476 -14529303.141 20703173.400 10 0 59310 21600.00000 0 -1149159.976 -13052834.609 21888878.389 10 0 59310 22500.00000 0 1227839.082 -11677783.391 22649648.148 10 0 59310 23400.00000 0 3757423.539 -10448490.950 22970789.841 10 0 59310 24300.00000 0 6379880.021 -9399723.063 22846137.644 10 0 59310 25200.00000 0 9030251.073 -8555308.974 22278166.502 10 0 59310 26100.00000 0 11640809.735 -7927256.819 21277940.000 10 0 59310 27000.00000 0 14143657.782 -7515381.123 19864893.671 10 0 59310 27900.00000 0 16473340.758 -7307456.947 18066457.947 10 0 59310 28800.00000 0 18569372.084 -7279893.284 15917527.853 10 0 59310 29700.00000 0 20378562.297 -7398896.762 13459789.313 10 0 59310 30600.00000 0 21857057.357 -7622076.220 10740914.550 10 0 59310 31500.00000 0 22972001.740 -7900420.363 7813641.663 10 0 59310 32400.00000 0 23702757.576 -8180564.953 4734755.679 10 0 59310 33300.00000 0 24041629.328 -8407253.771 1563990.375 10 0 59310 34200.00000 0 23994064.002 -8525889.322 -1637128.005 10 0 59310 35100.00000 0 23578318.770 -8485065.266 -4806472.861 10 0 59310 36000.00000 0 22824610.096 -8238973.178 -7882522.042 10 0 59310 36900.00000 0 21773780.172 -7749581.372 -10805551.747 10 0 59310 37800.00000 0 20475536.747 -6988492.999 -13518796.197 10 0 59310 38700.00000 0 18986340.263 -5938403.985 -15969550.449 10 0 59310 39600.00000 0 17367027.021 -4594098.196 -18110194.704 10 0 59310 40500.00000 0 15680268.076 -2962936.559 -19899120.254 10 0 59310 41400.00000 0 13987970.333 -1064818.058 -21301539.101 10 0 59310 42300.00000 0 12348728.662 1068387.310 -22290161.588 10 0 59310 43200.00000 0 10815435.580 3393911.519 -22845729.002 10 0 59310 44100.00000 0 9433148.297 5859624.205 -22957390.870 10 0 59310 45000.00000 0 8237302.187 8405968.358 -22622919.559 10 0 59310 45900.00000 0 7252345.100 10968216.654 -21848757.890 10 0 59310 46800.00000 0 6490849.337 13478955.524 -20649898.519 10 0 59310 47700.00000 0 5953138.123 15870694.235 -19049597.014 10 0 59310 48600.00000 0 5627441.791 18078490.908 -17078923.723 10 0 59310 49500.00000 0 5490576.587 20042486.361 -14776162.570 10 0 59310 50400.00000 0 5509117.022 21710240.104 -12186068.089 10 0 59310 51300.00000 0 5641011.705 23038770.972 -9358994.791 10 0 59310 52200.00000 0 5837573.730 23996216.993 -6349915.699 10 0 59310 53100.00000 0 6045760.720 24563044.898 -3217349.336 10 0 59310 54000.00000 0 6210647.149 24732758.712 -22216.417 10 0 59310 54900.00000 0 6277983.293 24512077.894 3173350.935 10 0 59310 55800.00000 0 6196731.460 23920578.001 6307223.442 10 0 59310 56700.00000 0 5921471.062 22989809.645 9318488.037 10 0 59310 57600.00000 0 5414569.787 21761933.533 12148635.999 10 0 59310 58500.00000 0 4648028.169 20287929.875 14742702.122 10 0 59310 59400.00000 0 3604918.856 18625458.192 17050332.471 10 0 59310 60300.00000 0 2280359.189 16836458.119 19026759.954 10 0 59310 61200.00000 0 681975.526 14984592.338 20633668.957 10 0 59310 62100.00000 0 -1170160.762 13132638.975 21839932.819 10 0 59310 63000.00000 0 -3244123.589 11339942.457 22622210.587 10 0 59310 63900.00000 0 -5497224.622 9660028.965 22965392.278 10 0 59310 64800.00000 0 -7877563.062 8138485.265 22862884.883 10 0 59310 65700.00000 0 -10325968.931 6811188.429 22316734.325 10 0 59310 66600.00000 0 -12778259.797 5702959.116 21337581.529 10 0 59310 67500.00000 0 -15167718.000 4826693.306 19944453.819 10 0 59310 68400.00000 0 -17427686.335 4183007.416 18164395.672 10 0 59310 69300.00000 0 -19494175.136 3760410.448 16031945.824 10 0 59310 70200.00000 0 -21308373.126 3535994.844 13588470.452 10 0 59310 71100.00000 0 -22818958.286 3476616.195 10881364.775 10 0 59310 72000.00000 0 -23984112.908 3540511.581 7963138.039 10 0 59310 72900.00000 0 -24773159.218 3679287.918 4890399.075 10 0 59310 73800.00000 0 -25167747.508 3840196.136 1722761.610 10 0 59310 74700.00000 0 -25162547.145 3968594.948 -1478309.612 10 0 59310 75600.00000 0 -24765411.573 4010499.822 -4650689.690 10 0 59310 76500.00000 0 -23997010.316 3915109.041 -7732798.300 10 0 59310 77400.00000 0 -22889943.296 3637199.630 -10664794.696 10 0 59310 78300.00000 0 -21487374.484 3139291.195 -13389739.652 10 0 59310 79200.00000 0 -19841242.020 2393485.472 -15854701.626 10 0 59310 80100.00000 0 -18010119.714 1382902.945 -18011785.457 10 0 59310 81000.00000 0 -16056819.370 102654.791 -19819063.639 10 0 59310 81900.00000 0 -14045834.077 -1439692.141 -21241392.118 10 0 59310 82800.00000 0 -12040729.292 -3224178.316 -22251094.804 10 0 59310 83700.00000 0 -10101590.485 -5219041.392 -22828503.653 10 0 59310 84600.00000 0 -8282633.627 -7381809.930 -22962343.893 10 0 59310 85500.00000 0 -6630078.054 -9660856.638 -22649956.849 10 0 59311 0.00000 0 -5180370.046 -11997347.707 -21897355.956 10 0 59311 900.00000 0 -3958831.026 -14327508.236 -20719114.375 10 0 59311 1800.00000 0 -2978785.807 -16585109.793 -19138086.432 10 0 59311 2700.00000 0 -2241207.961 -18704077.295 -17184967.186 10 0 59311 3600.00000 0 -1734894.986 -20621106.832 -14897698.663 10 0 59311 4500.00000 0 -1437166.371 -22278184.924 -12320733.594 10 0 59311 5400.00000 0 -1315053.765 -23624903.993 -9504170.768 10 0 59311 6300.00000 0 -1326932.361 -24620476.898 -6502778.615 10 0 59311 7200.00000 0 -1424523.626 -25235365.792 -3374926.248 10 0 59311 8100.00000 0 -1555183.676 -25452456.820 -181443.101 10 0 59311 9000.00000 0 -1664379.353 -25267731.225 3015570.079 10 0 59311 9900.00000 0 -1698246.082 -24690404.754 6153954.922 10 0 59311 10800.00000 0 -1606118.088 -23742529.801 9172709.443 10 0 59311 11700.00000 0 -1342922.812 -22458077.477 12013178.024 10 0 59311 12600.00000 0 -871337.329 -20881538.788 14620193.555 10 0 59311 13500.00000 0 -163614.789 -19066104.298 16943149.254 10 0 59311 14400.00000 0 796996.883 -17071499.238 18936979.263 10 0 59311 15300.00000 0 2015304.381 -14961565.254 20563029.182 10 0 59311 16200.00000 0 3483727.023 -12801690.227 21789800.197 10 0 59311 17100.00000 0 5182382.436 -10656193.451 22593553.091 10 0 59311 18000.00000 0 7079696.846 -8585775.034 22958761.228 10 0 59311 18900.00000 0 9133515.044 -6645135.092 22878404.609 10 0 59311 19800.00000 0 11292664.417 -4880860.964 22354100.034 10 0 59311 20700.00000 0 13498908.511 -3329669.256 21396065.415 10 0 59311 21600.00000 0 15689209.591 -2017074.567 20022919.259 10 0 59311 22500.00000 0 17798206.874 -956538.906 18261319.258 10 0 59311 23400.00000 0 19760807.984 -149135.945 16145446.792 10 0 59311 24300.00000 0 21514786.486 416257.234 13716346.977 10 0 59311 25200.00000 0 23003277.891 762250.111 11021136.437 10 0 59311 26100.00000 0 24177070.421 921741.113 8112093.686 10 0 59311 27000.00000 0 24996595.208 936283.578 5045649.175 10 0 59311 27900.00000 0 25433532.858 854084.675 1881294.108 10 0 59311 28800.00000 0 25471969.064 727722.097 -1319570.998 10 0 59311 29700.00000 0 25109050.713 611675.341 -4494825.846 10 0 59311 30600.00000 0 24355114.694 559776.268 -7582834.926 10 0 59311 31500.00000 0 23233283.638 622687.117 -10523643.521 10 0 59311 32400.00000 0 21778545.179 845513.126 -13260141.806 10 0 59311 33300.00000 0 20036352.888 1265651.308 -15739174.303 10 0 59311 34200.00000 0 18060807.138 1910967.029 -17912572.925 10 0 59311 35100.00000 0 15912491.662 2798376.273 -19738093.565 10 0 59311 36000.00000 0 13656055.872 3932894.516 -21180238.045 10 0 59311 36900.00000 0 11357643.653 5307193.467 -22210945.526 10 0 59311 37800.00000 0 9082275.545 6901685.709 -22810140.055 10 0 59311 38700.00000 0 6891293.100 8685135.202 -22966123.691 10 0 59311 39600.00000 0 4839971.577 10615769.451 -22675807.527 10 0 59311 40500.00000 0 2975400.018 12642848.244 -21944775.996 10 0 59311 41400.00000 0 1334716.507 14708624.589 -20787182.922 10 0 59311 42300.00000 0 -56228.230 16750616.870 -19225480.934 10 0 59311 43200.00000 0 -1183723.820 18704098.014 -17289989.001 10 0 59311 44100.00000 0 -2046534.860 20504698.084 -15018305.970 10 0 59311 45000.00000 0 -2655703.960 22091011.529 -12454581.064 10 0 59311 45900.00000 0 -3033832.430 23407099.846 -9648655.211 10 0 59311 46800.00000 0 -3213869.910 24404784.497 -6655089.738 10 0 59311 47700.00000 0 -3237465.015 25045633.443 -3532101.498 10 0 59311 48600.00000 0 -3152947.840 25302557.457 -340425.534 10 0 59311 49500.00000 0 -3013030.808 25160948.781 2857872.087 10 0 59311 50400.00000 0 -2872326.332 24619313.984 6000607.308 10 0 59311 51300.00000 0 -2784787.567 23689374.385 9026692.646 10 0 59311 52200.00000 0 -2801181.689 22395629.910 11877328.931 10 0 59311 53100.00000 0 -2966703.553 20774405.021 14497150.366 10 0 59311 54000.00000 0 -3318831.473 18872417.160 16835300.328 10 0 59311 54900.00000 0 -3885516.330 16744928.109 18846416.956 10 0 59311 55800.00000 0 -4683780.886 14453556.082 20491509.548 10 0 59311 56700.00000 0 -5718788.690 12063840.178 21738709.296 10 0 59311 57600.00000 0 -6983422.085 9642658.823 22563880.510 10 0 59311 58500.00000 0 -8458387.346 7255609.558 22951081.284 10 0 59311 59400.00000 0 -10112842.964 4964458.630 22892865.547 10 0 59311 60300.00000 0 -11905525.310 2824765.574 22390421.385 10 0 59311 61200.00000 0 -13786325.186 883780.465 21453543.550 10 0 59311 62100.00000 0 -15698250.156 -821300.078 20100441.006 10 0 59311 63000.00000 0 -17579691.543 -2264647.072 18357383.340 10 0 59311 63900.00000 0 -19366902.206 -3432630.217 16258192.694 10 0 59311 64800.00000 0 -20996582.436 -4324132.660 13843590.708 10 0 59311 65700.00000 0 -22408466.621 -4950337.657 11160412.562 10 0 59311 66600.00000 0 -23547803.008 -5333997.212 8260702.823 10 0 59311 67500.00000 0 -24367623.149 -5508214.412 5200710.088 10 0 59311 68400.00000 0 -24830706.089 -5514791.406 2039799.411 10 0 59311 69300.00000 0 -24911154.847 -5402213.259 -1160696.609 10 0 59311 70200.00000 0 -24595518.797 -5223353.184 -4338665.961 10 0 59311 71100.00000 0 -23883414.390 -5032996.511 -7432421.549 10 0 59311 72000.00000 0 -22787617.602 -4885288.380 -10381898.155 10 0 59311 72900.00000 0 -21333623.607 -4831213.478 -13129818.630 10 0 59311 73800.00000 0 -19558691.447 -4916214.858 -15622806.569 10 0 59311 74700.00000 0 -17510413.070 -5178052.995 -17812423.616 10 0 59311 75600.00000 0 -15244865.992 -5644996.188 -19656111.261 10 0 59311 76500.00000 0 -12824426.148 -6334419.510 -21118018.888 10 0 59311 77400.00000 0 -10315331.716 -7251872.267 -22169701.984 10 0 59311 78300.00000 0 -7785098.963 -8390654.375 -22790677.138 10 0 59311 79200.00000 0 -5299897.177 -9731920.656 -22968823.069 10 0 59311 80100.00000 0 -2921991.560 -11245309.948 -22700619.881 10 0 59311 81000.00000 0 -707359.944 -12890073.911 -21991221.766 10 0 59311 81900.00000 0 1296418.041 -14616659.439 -20854361.453 10 0 59311 82800.00000 0 3051911.929 -16368679.367 -19312087.849 10 0 59311 83700.00000 0 4533159.177 -18085189.737 -17394341.481 10 0 59311 84600.00000 0 5726497.445 -19703178.782 -15138375.469 10 0 59311 85500.00000 0 6630876.276 -21160163.449 -12588032.820 10 0 59312 0.00000 0 7257636.156 -22396784.572 -9792893.863 10 0 59312 900.00000 0 7629765.174 -23359291.230 -6807309.826 10 0 59312 1800.00000 0 7780665.879 -24001810.124 -3689342.502 10 0 59312 2700.00000 0 7752485.176 -24288302.592 -499629.697 10 0 59312 3600.00000 0 7594079.531 -24194128.009 2699799.965 10 0 59312 4500.00000 0 7358702.385 -23707146.012 5846739.393 10 0 59312 5400.00000 0 7101513.056 -22828311.370 8880018.118 10 0 59312 6300.00000 0 6877013.635 -21571736.106 11740695.749 10 0 59312 7200.00000 0 6736523.319 -19964216.245 14373209.911 10 0 59312 8100.00000 0 6725797.811 -18044243.166 16726456.003 10 0 59312 9000.00000 0 6882895.004 -15860541.146 18754777.741 10 0 59312 9900.00000 0 7236377.410 -13470192.527 20418849.372 10 0 59312 10800.00000 0 7803927.375 -10936428.958 21686433.005 10 0 59312 11700.00000 0 8591433.501 -8326180.709 22532997.038 10 0 59312 12600.00000 0 9592586.782 -5707485.948 22942184.516 10 0 59312 13500.00000 0 10789003.510 -3146867.149 22906123.187 10 0 59312 14400.00000 0 12150870.062 -706782.834 22425572.031 10 0 59312 15300.00000 0 13638082.858 1556740.516 21509901.979 10 0 59312 16200.00000 0 15201836.271 3596199.315 20176911.582 10 0 59312 17100.00000 0 16786592.671 5374341.063 18452481.246 10 0 59312 18000.00000 0 18332352.819 6865459.389 16370072.624 10 0 59312 18900.00000 0 19777132.295 8056203.564 13970082.449 10 0 59312 19800.00000 0 21059540.960 8945870.088 11299062.819 10 0 59312 20700.00000 0 22121357.835 9546165.417 8408822.531 10 0 59312 21600.00000 0 22909993.846 9880450.901 5355426.284 10 0 59312 22500.00000 0 23380739.203 9982502.581 2198110.739 10 0 59312 23400.00000 0 23498700.968 9894838.684 -1001861.844 10 0 59312 24300.00000 0 23240349.089 9666685.932 -4182390.278 10 0 59312 25200.00000 0 22594605.425 9351670.894 -7281738.483 10 0 59312 26100.00000 0 21563429.294 9005334.257 -10239733.303 10 0 59312 27000.00000 0 20161874.145 8682573.386 -12998932.734 10 0 59312 27900.00000 0 18417612.056 8435121.594 -15505741.758 10 0 59312 28800.00000 0 16369945.060 8309171.010 -17711453.882 10 0 59312 29700.00000 0 14068343.786 8343239.878 -19573198.144 10 0 59312 30600.00000 0 11570573.532 8566374.856 -21054773.252 10 0 59312 31500.00000 0 8940485.269 8996764.726 -22127352.630 10 0 59312 32400.00000 0 6245562.823 9640824.726 -22770046.839 10 0 59312 33300.00000 0 3554327.638 10492790.891 -22970312.500 10 0 59312 34200.00000 0 933708.528 11534842.433 -22724199.735 10 0 59312 35100.00000 0 -1553514.870 12737748.031 -22036433.204 10 0 59312 36000.00000 0 -3851089.214 14062009.901 -20920324.894 10 0 59312 36900.00000 0 -5911386.787 15459458.518 -19397519.942 10 0 59312 37800.00000 0 -7697140.230 16875231.808 -17497579.969 10 0 59312 38700.00000 0 -9182741.051 18250056.279 -15257411.458 10 0 59312 39600.00000 0 -10355048.330 19522734.521 -12720549.884 10 0 59312 40500.00000 0 -11213674.638 20632734.526 -9936313.144 10 0 59312 41400.00000 0 -11770738.177 21522771.679 -6958840.569 10 0 59312 42300.00000 0 -12050092.537 22141274.227 -3846036.413 10 0 59312 43200.00000 0 -12086067.735 22444627.755 -658438.637 10 0 59312 44100.00000 0 -11921776.887 22399103.396 2541964.408 10 0 59312 45000.00000 0 -11607061.264 21982387.789 5692945.592 10 0 59312 45900.00000 0 -11196161.908 21184649.729 8733254.574 10 0 59312 46800.00000 0 -10745217.452 20009098.061 11603812.923 10 0 59312 47700.00000 0 -10309694.988 18472007.038 14248864.879 10 0 59312 48600.00000 0 -9941863.457 16602207.873 16617061.003 10 0 59312 49500.00000 0 -9688416.913 14440067.691 18662453.607 10 0 59312 50400.00000 0 -9588348.311 12035998.624 20345384.748 10 0 59312 51300.00000 0 -9671163.627 9448559.287 21633250.060 10 0 59312 52200.00000 0 -9955511.435 6742227.606 22501124.348 10 0 59312 53100.00000 0 -10448285.445 3984937.518 22932237.537 10 0 59312 54000.00000 0 -11144237.504 1245481.365 22918292.706 10 0 59312 54900.00000 0 -12026117.186 -1409114.875 22459620.729 10 0 59312 55800.00000 0 -13065332.081 -3916135.492 21565169.183 10 0 59312 56700.00000 0 -14223101.230 -6219533.732 20252326.075 10 0 59312 57600.00000 0 -15452053.678 -8272008.676 18546581.920 10 0 59312 58500.00000 0 -16698205.541 -10036715.378 16481036.557 10 0 59312 59400.00000 0 -17903233.229 -11488538.568 14095759.947 10 0 59312 60300.00000 0 -19006948.010 -12614878.260 11437018.744 10 0 59312 61200.00000 0 -19949868.507 -13415915.678 8556383.161 10 0 59312 62100.00000 0 -20675783.435 -13904349.559 5509730.869 10 0 59312 63000.00000 0 -21134197.033 -14104614.847 2356166.719 10 0 59312 63900.00000 0 -21282554.262 -14051617.381 -843120.945 10 0 59312 64800.00000 0 -21088151.861 -13789038.448 -4026045.454 10 0 59312 65700.00000 0 -20529654.313 -13367281.158 -7130825.473 10 0 59312 66600.00000 0 -19598150.160 -12841145.609 -10097183.617 10 0 59312 67500.00000 0 -18297703.365 -12267331.327 -12867516.646 10 0 59312 68400.00000 0 -16645375.448 -11701872.660 -15388014.367 10 0 59312 69300.00000 0 -14670716.362 -11197615.690 -17609705.304 10 0 59312 70200.00000 0 -12414744.275 -10801843.397 -19489408.819 10 0 59312 71100.00000 0 -9928455.705 -10554149.580 -20990575.226 10 0 59312 72000.00000 0 -7270927.212 -10484651.512 -22083997.589 10 0 59312 72900.00000 0 -4507086.722 -10612617.050 -22748381.521 10 0 59312 73800.00000 0 -1705246.303 -10945564.523 -22970761.976 10 0 59312 74700.00000 0 1065501.713 -11478873.866 -22746758.907 10 0 59312 75600.00000 0 3737917.848 -12195926.002 -22080666.705 10 0 59312 76500.00000 0 6249169.025 -13068765.336 -20985375.385 10 0 59312 77400.00000 0 8543196.930 -14059258.158 -19482124.674 10 0 59312 78300.00000 0 10572803.233 -15120698.867 -17600095.284 10 0 59312 79200.00000 0 12301365.366 -16199796.887 -15375844.759 10 0 59312 80100.00000 0 13704111.801 -17238960.934 -12852598.453 10 0 59312 81000.00000 0 14768904.248 -18178784.424 -10079409.055 10 0 59312 81900.00000 0 15496494.790 -18960627.095 -7110200.830 10 0 59312 82800.00000 0 15900248.045 -19529183.471 -4002717.328 10 0 59312 83700.00000 0 16005341.094 -19834929.213 -817393.351 10 0 59312 84600.00000 0 15847476.070 -19836341.295 2383826.364 10 0 59312 85500.00000 0 15471160.873 -19501797.520 5538697.921 99